Ana Sayfa
METAR-TAF:

METAR-TAF

Havaalanları :

Red Oak Municipal Airport

Red Oak, Iowa, Amerika Birleşik Devletleri

Enlem: 41-01N, Boylam: 095-16W, yükseklik: 318 m

Güncel hava durumu gözlemi

Rapor saat 23:35 UTC de 32 dakika önce yapıldı.
Rüzgar kuzey/kuzeybatıdan 7 kt
Sıcaklık 24°C
Nem 38%
Basınç 1019 hPa
Görüş mesafesi: 16.1 km
7500 ft yükseklikte parçalı bulutlu

METAR: KRDK 282335Z AUTO 34007KT 10SM SCT075 24/09 A3010 RMK AO2

Saat: 19:07 (00:07 UTC)


TAF: eksik

4.000'den fazla havaalanı için hava durumu gözlemleri ve tahminleri (METAR ve TAF raporları).

Kullanılabilir istasyonlar harita üzerinde sarı ve kırmızı noktalarla gösterilir.

İstasyonun adını görmek için fareyi noktanın üzerinde gezdirin.

Sonrasında hava gözlem ve tahminlerini görmek için tıklayın.

Haritayı değiştirmek için: yaklaştırmak için siyah artı işaretli yeşil düğmeye ve uzaklaştırmak için de eksi işaretli düğmeye hızla tıklayın; bitişik haritalar için yeşil okları kullanın.


METAR-TAF: